Year,Month,Day,Hour,Minute,Value (Times are PST for temperature in C)
2010,08,17,00,00,18.90
2010,08,17,00,01,18.90
2010,08,17,00,02,18.90
2010,08,17,00,03,18.90
2010,08,17,00,04,18.90
2010,08,17,00,05,18.90
2010,08,17,00,06,18.80
2010,08,17,00,07,18.80
2010,08,17,00,08,18.80
2010,08,17,00,09,18.80
2010,08,17,00,10,18.80
2010,08,17,00,11,18.80
2010,08,17,00,12,18.70
2010,08,17,00,13,18.70
2010,08,17,00,14,18.70
2010,08,17,00,15,18.70
2010,08,17,00,16,18.70
2010,08,17,00,17,18.70
2010,08,17,00,18,18.70
2010,08,17,00,19,18.60
2010,08,17,00,20,18.60
2010,08,17,00,21,18.60
2010,08,17,00,22,18.60
2010,08,17,00,23,18.60
2010,08,17,00,24,18.60
2010,08,17,00,25,18.60
2010,08,17,00,26,18.50
2010,08,17,00,27,18.50
2010,08,17,00,28,18.50
2010,08,17,00,29,18.50
2010,08,17,00,30,18.40
2010,08,17,00,31,18.40
2010,08,17,00,32,18.40
2010,08,17,00,33,18.40
2010,08,17,00,34,18.40
2010,08,17,00,35,18.40
2010,08,17,00,36,18.30
2010,08,17,00,37,18.30
2010,08,17,00,38,18.30
2010,08,17,00,39,18.30
2010,08,17,00,40,18.30
2010,08,17,00,41,18.20
2010,08,17,00,42,18.20
2010,08,17,00,43,18.20
2010,08,17,00,44,18.20
2010,08,17,00,45,18.20
2010,08,17,00,46,18.10
2010,08,17,00,47,18.10
2010,08,17,00,48,18.10
2010,08,17,00,49,18.10
2010,08,17,00,50,18.10
2010,08,17,00,51,18.00
2010,08,17,00,52,18.00
2010,08,17,00,53,18.00
2010,08,17,00,54,18.00
2010,08,17,00,55,17.90
2010,08,17,00,56,17.90
2010,08,17,00,57,17.90
2010,08,17,00,58,17.90
2010,08,17,00,59,17.90
2010,08,17,01,00,17.80
2010,08,17,01,01,17.80
2010,08,17,01,02,17.80
2010,08,17,01,03,17.80
2010,08,17,01,04,17.80
2010,08,17,01,05,17.70
2010,08,17,01,06,17.70
2010,08,17,01,07,17.70
2010,08,17,01,08,17.70
2010,08,17,01,09,17.70
2010,08,17,01,10,17.60
2010,08,17,01,11,17.60
2010,08,17,01,12,17.60
2010,08,17,01,13,17.60
2010,08,17,01,14,17.50
2010,08,17,01,15,17.50
2010,08,17,01,16,17.50
2010,08,17,01,17,17.50
2010,08,17,01,18,17.40
2010,08,17,01,19,17.40
2010,08,17,01,20,17.40
2010,08,17,01,21,17.40
2010,08,17,01,22,17.30
2010,08,17,01,23,17.30
2010,08,17,01,24,17.30
2010,08,17,01,25,17.30
2010,08,17,01,26,17.30
2010,08,17,01,27,17.30
2010,08,17,01,28,17.20
2010,08,17,01,29,17.20
2010,08,17,01,30,17.20
2010,08,17,01,31,17.20
2010,08,17,01,32,17.20
2010,08,17,01,33,17.20
2010,08,17,01,34,17.20
2010,08,17,01,35,17.20
2010,08,17,01,36,17.20
2010,08,17,01,37,17.20
2010,08,17,01,38,17.20
2010,08,17,01,39,17.20
2010,08,17,01,40,17.20
2010,08,17,01,41,17.20
2010,08,17,01,42,17.20
2010,08,17,01,43,17.20
2010,08,17,01,44,17.20
2010,08,17,01,45,17.20
2010,08,17,01,46,17.20
2010,08,17,01,47,17.20
2010,08,17,01,48,17.20
2010,08,17,01,49,17.20
2010,08,17,01,50,17.20
2010,08,17,01,51,17.30
2010,08,17,01,52,17.30
2010,08,17,01,53,17.30
2010,08,17,01,54,17.30
2010,08,17,01,55,17.30
2010,08,17,01,56,17.30
2010,08,17,01,57,17.30
2010,08,17,01,58,17.30
2010,08,17,01,59,17.30
2010,08,17,02,00,17.30
2010,08,17,02,01,17.30
2010,08,17,02,02,17.30
2010,08,17,02,03,17.20
2010,08,17,02,04,17.20
2010,08,17,02,05,17.20
2010,08,17,02,06,17.20
2010,08,17,02,07,17.30
2010,08,17,02,08,17.30
2010,08,17,02,09,17.30
2010,08,17,02,10,17.20
2010,08,17,02,11,17.30
2010,08,17,02,12,17.30
2010,08,17,02,13,17.20
2010,08,17,02,14,17.20
2010,08,17,02,15,17.20
2010,08,17,02,16,17.20
2010,08,17,02,17,17.20
2010,08,17,02,18,17.20
2010,08,17,02,19,17.20
2010,08,17,02,20,17.20
2010,08,17,02,21,17.20
2010,08,17,02,22,17.10
2010,08,17,02,23,17.10
2010,08,17,02,24,17.10
2010,08,17,02,25,17.10
2010,08,17,02,26,17.10
2010,08,17,02,27,17.10
2010,08,17,02,28,17.00
2010,08,17,02,29,17.00
2010,08,17,02,30,17.00
2010,08,17,02,31,17.00
2010,08,17,02,32,16.90
2010,08,17,02,33,17.00
2010,08,17,02,34,16.90
2010,08,17,02,35,16.90
2010,08,17,02,36,16.90
2010,08,17,02,37,16.90
2010,08,17,02,38,16.90
2010,08,17,02,39,16.90
2010,08,17,02,40,16.90
2010,08,17,02,41,16.90
2010,08,17,02,42,16.90
2010,08,17,02,43,16.90
2010,08,17,02,44,16.80
2010,08,17,02,45,16.80
2010,08,17,02,46,16.80
2010,08,17,02,47,16.80
2010,08,17,02,48,16.80
2010,08,17,02,49,16.80
2010,08,17,02,50,16.80
2010,08,17,02,51,16.80
2010,08,17,02,52,16.80
2010,08,17,02,53,16.70
2010,08,17,02,54,16.70
2010,08,17,02,55,16.70
2010,08,17,02,56,16.70
2010,08,17,02,57,16.70
2010,08,17,02,58,16.70
2010,08,17,02,59,16.70
2010,08,17,03,00,16.70
2010,08,17,03,01,16.70
2010,08,17,03,02,16.70
2010,08,17,03,06,16.60
2010,08,17,03,07,16.60
2010,08,17,03,08,16.60
2010,08,17,03,09,16.60
2010,08,17,03,10,16.60
2010,08,17,03,11,16.60
2010,08,17,03,12,16.60
2010,08,17,03,13,16.60
2010,08,17,03,14,16.50
2010,08,17,03,15,16.50
2010,08,17,03,16,16.50
2010,08,17,03,17,16.50
2010,08,17,03,18,16.40
2010,08,17,03,19,16.40
2010,08,17,03,20,16.40
2010,08,17,03,21,16.40
2010,08,17,03,22,16.40
2010,08,17,03,23,16.40
2010,08,17,03,24,16.30
2010,08,17,03,25,16.30
2010,08,17,03,26,16.30
2010,08,17,03,27,16.30
2010,08,17,03,28,16.30
2010,08,17,03,29,16.20
2010,08,17,03,30,16.20
2010,08,17,03,31,16.20
2010,08,17,03,32,16.20
2010,08,17,03,33,16.20
2010,08,17,03,34,16.20
2010,08,17,03,35,16.20
2010,08,17,03,36,16.20
2010,08,17,03,37,16.20
2010,08,17,03,38,16.20
2010,08,17,03,39,16.20
2010,08,17,03,40,16.20
2010,08,17,03,41,16.20
2010,08,17,03,42,16.20
2010,08,17,03,43,16.20
2010,08,17,03,44,16.20
2010,08,17,03,45,16.20
2010,08,17,03,46,16.20
2010,08,17,03,47,16.20
2010,08,17,03,48,16.10
2010,08,17,03,49,16.10
2010,08,17,03,50,16.10
2010,08,17,03,51,16.10
2010,08,17,03,52,16.10
2010,08,17,03,53,16.10
2010,08,17,03,54,16.00
2010,08,17,03,55,16.00
2010,08,17,03,56,16.00
2010,08,17,03,57,16.00
2010,08,17,03,58,15.90
2010,08,17,03,59,15.90
2010,08,17,04,00,15.90
2010,08,17,04,01,15.90
2010,08,17,04,02,15.90
2010,08,17,04,03,15.90
2010,08,17,04,04,15.90
2010,08,17,04,05,15.90
2010,08,17,04,06,15.90
2010,08,17,04,07,15.90
2010,08,17,04,08,15.90
2010,08,17,04,09,15.90
2010,08,17,04,10,15.90
2010,08,17,04,11,15.90
2010,08,17,04,12,16.00
2010,08,17,04,13,16.00
2010,08,17,04,14,16.00
2010,08,17,04,15,16.00
2010,08,17,04,16,16.00
2010,08,17,04,17,16.00
2010,08,17,04,18,16.00
2010,08,17,04,19,16.00
2010,08,17,04,20,16.00
2010,08,17,04,21,15.90
2010,08,17,04,22,15.90
2010,08,17,04,23,15.90
2010,08,17,04,24,15.90
2010,08,17,04,25,15.90
2010,08,17,04,26,15.90
2010,08,17,04,27,15.90
2010,08,17,04,28,15.90
2010,08,17,04,29,15.90
2010,08,17,04,30,15.90
2010,08,17,04,31,15.90
2010,08,17,04,32,16.00
2010,08,17,04,33,16.00
2010,08,17,04,34,16.00
2010,08,17,04,35,16.00
2010,08,17,04,36,16.00
2010,08,17,04,37,16.00
2010,08,17,04,38,16.00
2010,08,17,04,39,16.00
2010,08,17,04,40,16.00
2010,08,17,04,41,16.00
2010,08,17,04,42,16.00
2010,08,17,04,43,16.00
2010,08,17,04,44,16.00
2010,08,17,04,45,16.00
2010,08,17,04,46,16.00
2010,08,17,04,47,16.00
2010,08,17,04,48,16.00
2010,08,17,04,49,15.90
2010,08,17,04,50,15.90
2010,08,17,04,51,15.90
2010,08,17,04,52,15.90
2010,08,17,04,53,15.90
2010,08,17,04,54,15.90
2010,08,17,04,55,15.80
2010,08,17,04,56,15.80
2010,08,17,04,57,15.80
2010,08,17,04,58,15.80
2010,08,17,04,59,15.80
2010,08,17,05,00,15.70
2010,08,17,05,01,15.70
2010,08,17,05,02,15.70
2010,08,17,05,03,15.70
2010,08,17,05,04,15.70
2010,08,17,05,05,15.60
2010,08,17,05,06,15.60
2010,08,17,05,07,15.60
2010,08,17,05,08,15.60
2010,08,17,05,09,15.60
2010,08,17,05,10,15.50
2010,08,17,05,11,15.50
2010,08,17,05,12,15.50
2010,08,17,05,13,15.40
2010,08,17,05,14,15.40
2010,08,17,05,15,15.40
2010,08,17,05,16,15.40
2010,08,17,05,17,15.30
2010,08,17,05,18,15.30
2010,08,17,05,19,15.30
2010,08,17,05,20,15.30
2010,08,17,05,21,15.20
2010,08,17,05,22,15.20
2010,08,17,05,23,15.20
2010,08,17,05,24,15.10
2010,08,17,05,25,15.10
2010,08,17,05,26,15.00
2010,08,17,05,27,15.00
2010,08,17,05,28,15.00
2010,08,17,05,29,15.00
2010,08,17,05,30,15.00
2010,08,17,05,31,15.00
2010,08,17,05,32,15.00
2010,08,17,05,33,15.00
2010,08,17,05,34,15.00
2010,08,17,05,35,15.00
2010,08,17,05,36,15.00
2010,08,17,05,37,15.00
2010,08,17,05,38,15.00
2010,08,17,05,39,14.90
2010,08,17,05,40,14.90
2010,08,17,05,41,14.90
2010,08,17,05,42,14.80
2010,08,17,05,43,14.80
2010,08,17,05,44,14.80
2010,08,17,05,45,14.80
2010,08,17,05,46,14.80
2010,08,17,05,47,14.80
2010,08,17,05,48,14.80
2010,08,17,05,49,14.70
2010,08,17,05,50,14.70
2010,08,17,05,51,14.70
2010,08,17,05,52,14.70
2010,08,17,05,53,14.70
2010,08,17,05,54,14.70
2010,08,17,05,55,14.60
2010,08,17,05,56,14.60
2010,08,17,05,57,14.60
2010,08,17,05,58,14.60
2010,08,17,05,59,14.60
2010,08,17,06,00,14.60
2010,08,17,06,01,14.50
2010,08,17,06,02,14.50
2010,08,17,06,03,14.50
2010,08,17,06,04,14.40
2010,08,17,06,05,14.40
2010,08,17,06,06,14.40
2010,08,17,06,07,14.40
2010,08,17,06,08,14.40
2010,08,17,06,09,14.30
2010,08,17,06,10,14.30
2010,08,17,06,11,14.30
2010,08,17,06,12,14.30
2010,08,17,06,13,14.30
2010,08,17,06,14,14.30
2010,08,17,06,15,14.30
2010,08,17,06,16,14.30
2010,08,17,06,17,14.30
2010,08,17,06,18,14.30
2010,08,17,06,19,14.30
2010,08,17,06,20,14.30
2010,08,17,06,21,14.30
2010,08,17,06,22,14.30
2010,08,17,06,23,14.30
2010,08,17,06,24,14.30
2010,08,17,06,25,14.30
2010,08,17,06,26,14.30
2010,08,17,06,27,14.30
2010,08,17,06,28,14.30
2010,08,17,06,29,14.30
2010,08,17,06,30,14.30
2010,08,17,06,31,14.30
2010,08,17,06,32,14.30
2010,08,17,06,33,14.30
2010,08,17,06,34,14.30
2010,08,17,06,35,14.30
2010,08,17,06,36,14.30
2010,08,17,06,37,14.30
2010,08,17,06,38,14.30
2010,08,17,06,39,14.30
2010,08,17,06,40,14.30
2010,08,17,06,41,14.30
2010,08,17,06,42,14.30
2010,08,17,06,43,14.30
2010,08,17,06,44,14.30
2010,08,17,06,45,14.30
2010,08,17,06,46,14.30
2010,08,17,06,47,14.30
2010,08,17,06,48,14.30
2010,08,17,06,49,14.30
2010,08,17,06,50,14.30
2010,08,17,06,51,14.40
2010,08,17,06,52,14.40
2010,08,17,06,53,14.40
2010,08,17,06,54,14.40
2010,08,17,06,55,14.40
2010,08,17,06,56,14.50
2010,08,17,06,57,14.50
2010,08,17,06,58,14.60
2010,08,17,06,59,14.60
2010,08,17,07,00,14.60
2010,08,17,07,01,14.60
2010,08,17,07,02,14.70
2010,08,17,07,03,14.70
2010,08,17,07,04,14.70
2010,08,17,07,05,14.70
2010,08,17,07,06,14.70
2010,08,17,07,07,14.80
2010,08,17,07,08,14.80
2010,08,17,07,09,14.80
2010,08,17,07,10,14.80
2010,08,17,07,11,14.80
2010,08,17,07,12,14.80
2010,08,17,07,13,14.80
2010,08,17,07,14,14.90
2010,08,17,07,15,14.90
2010,08,17,07,16,14.90
2010,08,17,07,17,14.90
2010,08,17,07,18,14.90
2010,08,17,07,19,14.90
2010,08,17,07,20,14.90
2010,08,17,07,21,15.00
2010,08,17,07,22,15.00
2010,08,17,07,23,15.00
2010,08,17,07,24,15.00
2010,08,17,07,25,15.00
2010,08,17,07,26,15.00
2010,08,17,07,27,15.00
2010,08,17,07,28,15.00
2010,08,17,07,29,15.00
2010,08,17,07,30,15.00
2010,08,17,07,31,15.00
2010,08,17,07,32,15.00
2010,08,17,07,33,15.00
2010,08,17,07,34,15.00
2010,08,17,07,35,15.00
2010,08,17,07,36,15.10
2010,08,17,07,37,15.10
2010,08,17,07,38,15.10
2010,08,17,07,39,15.20
2010,08,17,07,40,15.20
2010,08,17,07,41,15.20
2010,08,17,07,42,15.30
2010,08,17,07,43,15.30
2010,08,17,07,44,15.30
2010,08,17,07,45,15.30
2010,08,17,07,46,15.40
2010,08,17,07,47,15.40
2010,08,17,07,48,15.40
2010,08,17,07,49,15.40
2010,08,17,07,50,15.50
2010,08,17,07,51,15.50
2010,08,17,07,52,15.50
2010,08,17,07,53,15.60
2010,08,17,07,54,15.60
2010,08,17,07,55,15.70
2010,08,17,07,56,15.70
2010,08,17,07,57,15.80
2010,08,17,07,58,15.80
2010,08,17,07,59,15.90
2010,08,17,08,00,16.00
2010,08,17,08,01,16.10
2010,08,17,08,02,16.20
2010,08,17,08,03,16.20
2010,08,17,08,04,16.30
2010,08,17,08,05,16.40
2010,08,17,08,06,16.50
2010,08,17,08,07,16.60
2010,08,17,08,08,16.70
2010,08,17,08,09,16.80
2010,08,17,08,10,16.80
2010,08,17,08,11,16.90
2010,08,17,08,12,17.00
2010,08,17,08,13,17.10
2010,08,17,08,14,17.20
2010,08,17,08,15,17.30
2010,08,17,08,16,17.30
2010,08,17,08,17,17.40
2010,08,17,08,18,17.50
2010,08,17,08,19,17.60
2010,08,17,08,20,17.60
2010,08,17,08,21,17.70
2010,08,17,08,22,17.80
2010,08,17,08,23,17.90
2010,08,17,08,24,17.90
2010,08,17,08,25,18.00
2010,08,17,08,26,18.10
2010,08,17,08,27,18.10
2010,08,17,08,28,18.20
2010,08,17,08,29,18.20
2010,08,17,08,30,18.30
2010,08,17,08,31,18.40
2010,08,17,08,32,18.40
2010,08,17,08,33,18.50
2010,08,17,08,34,18.60
2010,08,17,08,35,18.70
2010,08,17,08,36,18.70
2010,08,17,08,37,18.90
2010,08,17,08,38,19.00
2010,08,17,08,39,19.10
2010,08,17,08,40,19.20
2010,08,17,08,41,19.30
2010,08,17,08,42,19.40
2010,08,17,08,43,19.50
2010,08,17,08,44,19.60
2010,08,17,08,45,19.70
2010,08,17,08,46,19.90
2010,08,17,08,47,20.00
2010,08,17,08,48,20.10
2010,08,17,08,49,20.20
2010,08,17,08,50,20.30
2010,08,17,08,51,20.40
2010,08,17,08,52,20.60
2010,08,17,08,53,20.70
2010,08,17,08,54,20.80
2010,08,17,08,55,20.90
2010,08,17,08,56,21.00
2010,08,17,08,57,21.10
2010,08,17,08,58,21.20
2010,08,17,08,59,21.20
2010,08,17,09,00,21.30
2010,08,17,09,01,21.40
2010,08,17,09,02,21.50
2010,08,17,09,03,21.50
2010,08,17,09,04,21.60
2010,08,17,09,05,21.70
2010,08,17,09,06,21.80
2010,08,17,09,07,21.80
2010,08,17,09,08,21.90
2010,08,17,09,09,22.00
2010,08,17,09,10,22.10
2010,08,17,09,11,22.20
2010,08,17,09,12,22.30
2010,08,17,09,13,22.40
2010,08,17,09,14,22.50
2010,08,17,09,15,22.60
2010,08,17,09,16,22.70
2010,08,17,09,17,22.70
2010,08,17,09,18,22.80
2010,08,17,09,19,22.90
2010,08,17,09,20,22.90
2010,08,17,09,21,23.00
2010,08,17,09,22,23.10
2010,08,17,09,23,23.20
2010,08,17,09,24,23.20
2010,08,17,09,25,23.30
2010,08,17,09,26,23.40
2010,08,17,09,27,23.40
2010,08,17,09,28,23.50
2010,08,17,09,29,23.60
2010,08,17,09,30,23.70
2010,08,17,09,31,23.70
2010,08,17,09,32,23.80
2010,08,17,09,33,23.80
2010,08,17,09,34,23.80
2010,08,17,09,35,23.90
2010,08,17,09,36,23.90
2010,08,17,09,37,24.00
2010,08,17,09,38,24.00
2010,08,17,09,39,24.10
2010,08,17,09,40,24.10
2010,08,17,09,41,24.10
2010,08,17,09,42,24.20
2010,08,17,09,43,24.20
2010,08,17,09,44,24.20
2010,08,17,09,45,24.20
2010,08,17,09,46,24.20
2010,08,17,09,47,24.20
2010,08,17,09,48,24.20
2010,08,17,09,49,24.20
2010,08,17,09,50,24.20
2010,08,17,09,51,24.10
2010,08,17,09,52,24.10
2010,08,17,09,53,24.10
2010,08,17,09,54,24.10
2010,08,17,09,55,24.10
2010,08,17,09,56,24.10
2010,08,17,09,57,24.10
2010,08,17,09,58,24.10
2010,08,17,09,59,24.10
2010,08,17,10,00,24.10
2010,08,17,10,01,24.10
2010,08,17,10,02,24.10
2010,08,17,10,03,24.10
2010,08,17,10,04,24.10
2010,08,17,10,05,24.10
2010,08,17,10,06,24.20
2010,08,17,10,07,24.20
2010,08,17,10,08,24.20
2010,08,17,10,09,24.30
2010,08,17,10,10,24.30
2010,08,17,10,11,24.30
2010,08,17,10,12,24.30
2010,08,17,10,13,24.30
2010,08,17,10,14,24.30
2010,08,17,10,15,24.30
2010,08,17,10,16,24.40
2010,08,17,10,17,24.40
2010,08,17,10,18,24.50
2010,08,17,10,19,24.60
2010,08,17,10,20,24.60
2010,08,17,10,21,24.70
2010,08,17,10,22,24.80
2010,08,17,10,23,24.80
2010,08,17,10,24,24.90
2010,08,17,10,25,24.90
2010,08,17,10,26,24.90
2010,08,17,10,27,25.00
2010,08,17,10,28,25.00
2010,08,17,10,29,25.00
2010,08,17,10,30,24.90
2010,08,17,10,31,24.90
2010,08,17,10,32,25.00
2010,08,17,10,33,25.00
2010,08,17,10,34,25.00
2010,08,17,10,35,25.00
2010,08,17,10,36,25.10
2010,08,17,10,37,25.10
2010,08,17,10,38,25.10
2010,08,17,10,39,25.20
2010,08,17,10,40,25.20
2010,08,17,10,41,25.30
2010,08,17,10,42,25.40
2010,08,17,10,43,25.50
2010,08,17,10,44,25.60
2010,08,17,10,45,25.60
2010,08,17,10,46,25.70
2010,08,17,10,47,25.70
2010,08,17,10,48,25.80
2010,08,17,10,49,25.80
2010,08,17,10,50,25.80
2010,08,17,10,51,25.90
2010,08,17,10,52,25.90
2010,08,17,10,53,25.90
2010,08,17,10,54,25.90
2010,08,17,10,55,25.90
2010,08,17,10,56,26.00
2010,08,17,10,57,26.10
2010,08,17,10,58,26.10
2010,08,17,10,59,26.10
2010,08,17,11,00,26.10
2010,08,17,11,01,26.00
2010,08,17,11,02,26.00
2010,08,17,11,03,26.00
2010,08,17,11,04,26.00
2010,08,17,11,05,26.10
2010,08,17,11,06,26.20
2010,08,17,11,07,26.20
2010,08,17,11,08,26.20
2010,08,17,11,09,26.10
2010,08,17,11,10,26.10
2010,08,17,11,11,26.10
2010,08,17,11,12,26.10
2010,08,17,11,13,26.10
2010,08,17,11,14,26.10
2010,08,17,11,15,26.10
2010,08,17,11,16,26.20
2010,08,17,11,17,26.20
2010,08,17,11,18,26.30
2010,08,17,11,19,26.30
2010,08,17,11,20,26.30
2010,08,17,11,21,26.30
2010,08,17,11,22,26.30
2010,08,17,11,23,26.30
2010,08,17,11,24,26.30
2010,08,17,11,25,26.40
2010,08,17,11,26,26.40
2010,08,17,11,27,26.50
2010,08,17,11,28,26.60
2010,08,17,11,29,26.60
2010,08,17,11,30,26.60
2010,08,17,11,31,26.70
2010,08,17,11,32,26.70
2010,08,17,11,33,26.70
2010,08,17,11,34,26.70
2010,08,17,11,35,26.70
2010,08,17,11,36,26.80
2010,08,17,11,37,26.80
2010,08,17,11,38,26.80
2010,08,17,11,39,26.90
2010,08,17,11,40,26.90
2010,08,17,11,41,26.90
2010,08,17,11,42,26.90
2010,08,17,11,43,26.80
2010,08,17,11,44,26.80
2010,08,17,11,45,26.80
2010,08,17,11,46,26.80
2010,08,17,11,47,26.80
2010,08,17,11,48,26.80
2010,08,17,11,49,26.80
2010,08,17,11,50,26.70
2010,08,17,11,51,26.80
2010,08,17,11,52,26.80
2010,08,17,11,53,26.80
2010,08,17,11,54,26.90
2010,08,17,11,55,26.90
2010,08,17,11,56,26.90
2010,08,17,11,57,26.90
2010,08,17,11,58,26.90
2010,08,17,11,59,27.00
2010,08,17,12,00,27.00
2010,08,17,12,01,27.00
2010,08,17,12,02,27.00
2010,08,17,12,03,27.00
2010,08,17,12,04,27.10
2010,08,17,12,05,27.10
2010,08,17,12,06,27.10
2010,08,17,12,07,27.10
2010,08,17,12,08,27.10
2010,08,17,12,09,27.10
2010,08,17,12,10,27.00
2010,08,17,12,11,27.10
2010,08,17,12,12,27.10
2010,08,17,12,13,27.10
2010,08,17,12,14,27.20
2010,08,17,12,15,27.30
2010,08,17,12,16,27.20
2010,08,17,12,17,27.20
2010,08,17,12,18,27.10
2010,08,17,12,19,27.10
2010,08,17,12,20,27.00
2010,08,17,12,21,26.90
2010,08,17,12,22,26.90
2010,08,17,12,23,26.90
2010,08,17,12,24,26.80
2010,08,17,12,25,26.80
2010,08,17,12,26,26.70
2010,08,17,12,27,26.70
2010,08,17,12,28,26.70
2010,08,17,12,29,26.70
2010,08,17,12,30,26.70
2010,08,17,12,31,26.70
2010,08,17,12,32,26.80
2010,08,17,12,33,26.80
2010,08,17,12,34,26.80
2010,08,17,12,35,26.70
2010,08,17,12,36,26.70
2010,08,17,12,37,26.60
2010,08,17,12,38,26.60
2010,08,17,12,39,26.50
2010,08,17,12,40,26.50
2010,08,17,12,41,26.50
2010,08,17,12,42,26.60
2010,08,17,12,43,26.60
2010,08,17,12,44,26.60
2010,08,17,12,45,26.70
2010,08,17,12,46,26.70
2010,08,17,12,47,26.70
2010,08,17,12,48,26.70
2010,08,17,12,49,26.70
2010,08,17,12,50,26.80
2010,08,17,12,51,26.80
2010,08,17,12,52,26.90
2010,08,17,12,53,26.90
2010,08,17,12,54,27.00
2010,08,17,12,55,27.00
2010,08,17,12,56,27.00
2010,08,17,12,57,27.00
2010,08,17,12,58,27.00
2010,08,17,12,59,27.00
2010,08,17,13,00,27.00
2010,08,17,13,01,27.10
2010,08,17,13,02,27.00
2010,08,17,13,03,27.10
2010,08,17,13,04,27.00
2010,08,17,13,05,27.00
2010,08,17,13,06,26.90
2010,08,17,13,07,26.90
2010,08,17,13,08,26.80
2010,08,17,13,09,26.80
2010,08,17,13,10,26.80
2010,08,17,13,11,26.90
2010,08,17,13,12,26.90
2010,08,17,13,13,26.80
2010,08,17,13,14,26.80
2010,08,17,13,15,26.80
2010,08,17,13,16,26.80
2010,08,17,13,17,26.90
2010,08,17,13,18,26.90
2010,08,17,13,19,26.90
2010,08,17,13,20,27.00
2010,08,17,13,21,27.00
2010,08,17,13,22,27.00
2010,08,17,13,23,27.10
2010,08,17,13,24,27.20
2010,08,17,13,25,27.30
2010,08,17,13,26,27.30
2010,08,17,13,27,27.30
2010,08,17,13,28,27.30
2010,08,17,13,29,27.30
2010,08,17,13,30,27.30
2010,08,17,13,31,27.30
2010,08,17,13,32,27.20
2010,08,17,13,33,27.20
2010,08,17,13,34,27.10
2010,08,17,13,35,27.10
2010,08,17,13,36,27.10
2010,08,17,13,37,27.00
2010,08,17,13,38,27.00
2010,08,17,13,39,26.90
2010,08,17,13,40,26.90
2010,08,17,13,41,26.80
2010,08,17,13,42,26.80
2010,08,17,13,43,26.80
2010,08,17,13,44,26.70
2010,08,17,13,45,26.70
2010,08,17,13,46,26.70
2010,08,17,13,47,26.70
2010,08,17,13,48,26.70
2010,08,17,13,49,26.70
2010,08,17,13,50,26.70
2010,08,17,13,51,26.80
2010,08,17,13,52,26.80
2010,08,17,13,53,26.80
2010,08,17,13,54,26.80
2010,08,17,13,55,26.90
2010,08,17,13,56,26.90
2010,08,17,13,57,26.90
2010,08,17,13,58,27.00
2010,08,17,13,59,26.90
2010,08,17,14,00,26.90
2010,08,17,14,01,26.90
2010,08,17,14,02,26.90
2010,08,17,14,03,26.80
2010,08,17,14,04,26.80
2010,08,17,14,05,26.80
2010,08,17,14,06,26.90
2010,08,17,14,07,26.90
2010,08,17,14,08,26.90
2010,08,17,14,09,26.90
2010,08,17,14,10,27.00
2010,08,17,14,11,27.00
2010,08,17,14,12,27.10
2010,08,17,14,13,27.10
2010,08,17,14,14,27.10
2010,08,17,14,15,27.10
2010,08,17,14,16,27.00
2010,08,17,14,17,27.00
2010,08,17,14,18,27.00
2010,08,17,14,19,26.90
2010,08,17,14,20,26.90
2010,08,17,14,21,26.90
2010,08,17,14,22,26.90
2010,08,17,14,23,27.00
2010,08,17,14,24,27.00
2010,08,17,14,25,27.10
2010,08,17,14,26,27.20
2010,08,17,14,27,27.20
2010,08,17,14,28,27.30
2010,08,17,14,29,27.40
2010,08,17,14,30,27.50
2010,08,17,14,31,27.60
2010,08,17,14,32,27.70
2010,08,17,14,33,27.80
2010,08,17,14,34,27.80
2010,08,17,14,35,27.70
2010,08,17,14,36,27.70
2010,08,17,14,37,27.60
2010,08,17,14,38,27.50
2010,08,17,14,39,27.50
2010,08,17,14,40,27.40
2010,08,17,14,41,27.30
2010,08,17,14,42,27.30
2010,08,17,14,43,27.30
2010,08,17,14,44,27.40
2010,08,17,14,45,27.50
2010,08,17,14,46,27.50
2010,08,17,14,47,27.60
2010,08,17,14,48,27.60
2010,08,17,14,49,27.60
2010,08,17,14,50,27.50
2010,08,17,14,51,27.50
2010,08,17,14,52,27.40
2010,08,17,14,53,27.40
2010,08,17,14,54,27.40
2010,08,17,14,55,27.40
2010,08,17,14,56,27.40
2010,08,17,14,57,27.40
2010,08,17,14,58,27.40
2010,08,17,14,59,27.40
2010,08,17,15,00,27.30
2010,08,17,15,01,27.30
2010,08,17,15,02,27.30
2010,08,17,15,03,27.30
2010,08,17,15,04,27.20
2010,08,17,15,05,27.20
2010,08,17,15,06,27.20
2010,08,17,15,07,27.20
2010,08,17,15,08,27.10
2010,08,17,15,09,27.10
2010,08,17,15,10,27.00
2010,08,17,15,11,27.00
2010,08,17,15,12,27.00
2010,08,17,15,13,27.00
2010,08,17,15,14,27.00
2010,08,17,15,15,27.00
2010,08,17,15,16,27.00
2010,08,17,15,17,27.00
2010,08,17,15,18,27.00
2010,08,17,15,19,27.10
2010,08,17,15,20,27.10
2010,08,17,15,21,27.10
2010,08,17,15,22,27.20
2010,08,17,15,23,27.30
2010,08,17,15,24,27.30
2010,08,17,15,25,27.30
2010,08,17,15,26,27.30
2010,08,17,15,27,27.20
2010,08,17,15,28,27.10
2010,08,17,15,29,27.00
2010,08,17,15,30,26.90
2010,08,17,15,31,26.80
2010,08,17,15,32,26.80
2010,08,17,15,33,26.80
2010,08,17,15,34,26.80
2010,08,17,15,35,26.70
2010,08,17,15,36,26.70
2010,08,17,15,37,26.70
2010,08,17,15,38,26.80
2010,08,17,15,39,26.70
2010,08,17,15,40,26.80
2010,08,17,15,41,26.80
2010,08,17,15,42,26.80
2010,08,17,15,43,26.80
2010,08,17,15,44,26.80
2010,08,17,15,45,26.80
2010,08,17,15,46,26.80
2010,08,17,15,47,26.80
2010,08,17,15,48,26.80
2010,08,17,15,49,26.90
2010,08,17,15,50,26.90
2010,08,17,15,51,27.00
2010,08,17,15,52,27.10
2010,08,17,15,53,27.10
2010,08,17,15,54,27.20
2010,08,17,15,55,27.20
2010,08,17,15,56,27.20
2010,08,17,15,57,27.20
2010,08,17,15,58,27.20
2010,08,17,15,59,27.20
2010,08,17,16,00,27.20
2010,08,17,16,01,27.20
2010,08,17,16,02,27.20
2010,08,17,16,03,27.20
2010,08,17,16,04,27.30
2010,08,17,16,05,27.30
2010,08,17,16,06,27.30
2010,08,17,16,07,27.30
2010,08,17,16,08,27.30
2010,08,17,16,09,27.30
2010,08,17,16,10,27.30
2010,08,17,16,11,27.40
2010,08,17,16,12,27.40
2010,08,17,16,13,27.30
2010,08,17,16,14,27.30
2010,08,17,16,15,27.40
2010,08,17,16,16,27.40
2010,08,17,16,17,27.50
2010,08,17,16,18,27.50
2010,08,17,16,19,27.50
2010,08,17,16,20,27.50
2010,08,17,16,21,27.50
2010,08,17,16,22,27.50
2010,08,17,16,23,27.60
2010,08,17,16,24,27.60
2010,08,17,16,25,27.60
2010,08,17,16,26,27.60
2010,08,17,16,27,27.70
2010,08,17,16,28,27.70
2010,08,17,16,29,27.80
2010,08,17,16,30,27.80
2010,08,17,16,31,27.80
2010,08,17,16,32,27.80
2010,08,17,16,33,27.70
2010,08,17,16,34,27.70
2010,08,17,16,35,27.70
2010,08,17,16,36,27.60
2010,08,17,16,37,27.60
2010,08,17,16,38,27.60
2010,08,17,16,39,27.60
2010,08,17,16,40,27.60
2010,08,17,16,41,27.70
2010,08,17,16,42,27.70
2010,08,17,16,43,27.70
2010,08,17,16,44,27.70
2010,08,17,16,45,27.70
2010,08,17,16,46,27.70
2010,08,17,16,47,27.60
2010,08,17,16,48,27.60
2010,08,17,16,49,27.50
2010,08,17,16,50,27.40
2010,08,17,16,51,27.40
2010,08,17,16,52,27.40
2010,08,17,16,53,27.40
2010,08,17,16,54,27.40
2010,08,17,16,55,27.40
2010,08,17,16,56,27.40
2010,08,17,16,57,27.40
2010,08,17,16,58,27.40
2010,08,17,16,59,27.40
2010,08,17,17,00,27.40
2010,08,17,17,01,27.40
2010,08,17,17,02,27.40
2010,08,17,17,03,27.30
2010,08,17,17,04,27.30
2010,08,17,17,05,27.30
2010,08,17,17,06,27.30
2010,08,17,17,07,27.30
2010,08,17,17,08,27.30
2010,08,17,17,09,27.30
2010,08,17,17,10,27.30
2010,08,17,17,11,27.30
2010,08,17,17,12,27.30
2010,08,17,17,13,27.30
2010,08,17,17,14,27.30
2010,08,17,17,15,27.30
2010,08,17,17,16,27.30
2010,08,17,17,17,27.40
2010,08,17,17,18,27.50
2010,08,17,17,19,27.50
2010,08,17,17,20,27.60
2010,08,17,17,21,27.60
2010,08,17,17,22,27.60